Weather History for PABA - June, 2014

Change the Weather History Date:

Tuesday, June 3, 2014

  Actual Average Record
Temperature  
Mean Temperature 29 °F -  
Max Temperature 28 °F 31 °F 39 °F (1999)
Min Temperature 26 °F 26 °F 10 °F (1997)
Degree Days  
Heating Degree Days 36    
Moisture  
Dew Point 27 °F    
Average Humidity 92    
Maximum Humidity 96    
Minimum Humidity 85    
Precipitation  
Precipitation 0.00 in - - ()
Sea Level Pressure  
Sea Level Pressure 30.38 in    
Wind  
Wind Speed 15 mph (ESE)    
Max Wind Speed 18 mph    
Max Gust Speed -    
Visibility 10 miles    
Events Snow    
Averages and records for this station are not official NWS values.
T = Trace of Precipitation, MM = Missing Value Source: NWS Daily Summary

Daily Weather History Graph

Daily Weather History Graph

Search for Another Location

Airport or City:

Trip Planner

Search our weather history database for the weather conditions in past years. The results will help you decide how hot, cold, wet, or windy it might be!

Date:

Astronomy

Dec. 31, 1969 Rise Set
Actual Time Sun does not rise Sun does not rise
Civil Twilight Sun does not rise Sun does not rise
Nautical Twilight Sun does not rise Sun does not rise
Astronomical Twilight Sun does not rise Sun does not rise
Moon 10:10 AM AKDT (6/3) 2:08 AM AKDT (6/3)
Length of Visible Light 24h 00m
Length of Day
24h 00m
Waxing Crescent, 31% of the Moon is Illuminated
Jun 3
Waxing Crescent
Jun 5
First Quarter
Jun 12
Full
Jun 19
Last Quarter
Jun 27
New

Hourly Weather History & Observations

Time (AKDT) Temp. Windchill Dew Point Humidity Pressure Visibility Wind Dir Wind Speed Gust Speed Precip Events Conditions
12:01 AM 27.0 °F 16.1 °F 26.1 °F 96% 30.40 in 10.0 mi SE 12.7 mph - N/A   Overcast
12:26 AM 28.4 °F 17.0 °F 26.6 °F 93% 30.40 in 5.0 mi ESE 15.0 mph - 0.00 in Snow Light Snow
1:01 AM 27.0 °F 16.7 °F 26.1 °F 96% 30.40 in 10.0 mi ESE 11.5 mph - 0.00 in   Overcast
2:01 AM 27.0 °F 14.3 °F 26.1 °F 96% 30.41 in 9.0 mi ESE 17.3 mph - 0.00 in   Overcast
3:01 AM 27.0 °F 15.2 °F 25.0 °F 92% 30.41 in 4.0 mi ESE 15.0 mph - 0.00 in Snow Light Snow
4:01 AM 27.0 °F 14.7 °F 25.0 °F 92% 30.41 in 8.0 mi ESE 16.1 mph - 0.00 in Snow Light Snow
5:01 AM 26.6 °F 14.3 °F 24.8 °F 93% 30.41 in 10.0 mi ESE 16.1 mph - 0.00 in   Overcast
6:01 AM 27.0 °F 15.6 °F 26.1 °F 96% 30.41 in 10.0 mi ESE 13.8 mph - 0.00 in   Overcast
7:01 AM 27.0 °F 15.2 °F 26.1 °F 96% 30.41 in 10.0 mi ESE 15.0 mph - 0.00 in   Overcast
8:01 AM 28.0 °F 16.5 °F 26.1 °F 92% 30.41 in 10.0 mi ESE 15.0 mph - N/A   Overcast
8:44 AM 28.4 °F 17.5 °F 26.6 °F 93% 30.41 in 10.0 mi ESE 13.8 mph - N/A   Overcast
9:01 AM 28.0 °F 17.0 °F 26.1 °F 92% 30.41 in 9.0 mi ESE 13.8 mph - N/A   Overcast
10:01 AM 28.9 °F 17.3 °F 27.0 °F 92% 30.40 in 9.0 mi ESE 16.1 mph - 0.00 in   Overcast
10:09 AM 28.4 °F 16.6 °F 26.6 °F 93% 30.40 in 10.0 mi ESE 16.1 mph - N/A   Unknown
10:41 AM 30.2 °F 18.5 °F 26.6 °F 86% 30.40 in 10.0 mi ESE 17.3 mph - N/A   Overcast
11:01 AM 28.9 °F 16.9 °F 26.1 °F 89% 30.40 in 10.0 mi ESE 17.3 mph - N/A   Overcast
11:08 AM 28.4 °F 16.2 °F 26.6 °F 93% 30.40 in 10.0 mi ESE 17.3 mph - N/A   Overcast
11:34 AM 30.2 °F 18.5 °F 26.6 °F 86% 30.40 in 10.0 mi ESE 17.3 mph - N/A   Overcast
12:01 PM 30.9 °F 19.1 °F 27.0 °F 85% 30.40 in 10.0 mi ESE 18.4 mph - N/A   Overcast
1:01 PM 30.9 °F 19.4 °F 28.0 °F 89% 30.40 in 10.0 mi ESE 17.3 mph - N/A   Overcast
1:45 PM 30.2 °F 18.5 °F 28.4 °F 93% 30.39 in 10.0 mi ESE 17.3 mph - N/A   Overcast
2:01 PM 30.9 °F 19.4 °F 28.0 °F 89% 30.39 in 10.0 mi ESE 17.3 mph - N/A   Overcast
3:01 PM 30.9 °F 20.7 °F 28.0 °F 89% 30.39 in 10.0 mi ESE 13.8 mph - N/A   Overcast
4:01 PM 30.9 °F 19.8 °F 28.0 °F 89% 30.37 in 10.0 mi ESE 16.1 mph - N/A   Overcast
4:32 PM 32.0 °F 20.8 °F 28.4 °F 87% 30.37 in 10.0 mi ESE 17.3 mph - N/A   Overcast
5:01 PM 30.9 °F 19.4 °F 28.0 °F 89% 30.36 in 10.0 mi ESE 17.3 mph - N/A   Overcast
6:01 PM 30.9 °F 19.4 °F 28.9 °F 92% 30.35 in 10.0 mi East 17.3 mph - N/A   Overcast
7:01 PM 30.0 °F 18.7 °F 28.0 °F 92% 30.34 in 10.0 mi East 16.1 mph - N/A   Overcast
8:01 PM 30.0 °F 18.3 °F 28.0 °F 92% 30.32 in 10.0 mi East 17.3 mph - N/A   Overcast
9:01 PM 30.0 °F 18.3 °F 28.0 °F 92% 30.31 in 10.0 mi ESE 17.3 mph - N/A   Overcast
10:01 PM 28.9 °F 16.5 °F 27.0 °F 92% 30.30 in 10.0 mi East 18.4 mph - N/A   Overcast
11:01 PM 28.9 °F 16.5 °F 27.0 °F 92% 30.29 in 10.0 mi ESE 18.4 mph - N/A   Overcast
11:22 PM 28.4 °F 15.8 °F 26.6 °F 93% 30.28 in 10.0 mi ESE 18.4 mph - N/A   Overcast